Terug naar catalogus

CZ-6A DEB

ActiefSSO
NORAD 56649·DEBRIS·🇨🇳 China

Gelanceerd Nov 11, 2022 vanaf Taiyuan Satellite Launch Center

Loading…

Volgende Passages (komende 24 uur)

TLE

VersSource: Space-Track

Epoch: Sep 12, 2026, 23:11 UTC

1 56649U 22151AFZ 26255.96629848  .00001210  00000-0  61009-3 0  9996
2 56649  98.8333 265.0868 0040800  69.0943 291.4592 14.17775725183295

Volg CZ-6A DEB in realtime met AllMySat

Download on the App Store